Weather in Singerei

Moldova     47°38′05″N   28°08′32″E
temp.,
°C
wind,
m/s
gust,
m/s
humid.,
%
clouds,
%
prec.,
mm/h
press.,
hPa
HPBL,
m
24 october, sun
sun2400:00+9wnw354299 0.0 1025126
03:00+7nw49546 0.0 1026277
06:00+4nw411695 0.0 1027355
09:00+5nw510735 0.0 1029529
12:00+8nnw7954100 0.0 10301470
15:00+8nw6953100 0.0 10301358
18:00+8nw684899 0.0 10311160
21:00+5nw395672 0.0 1032202
25 october, mon
mon2500:00+4wnw22605 0.0 103320
03:00+2nw22705 0.0 103414
06:00+2nnw11755 0.0 103410
09:00+3ne11670 0.0 103471
12:00+8e11460 0.0 1034791
15:00+10se22370 0.0 10321054
18:00+8sse22410 0.0 103222
21:00+6se35470 0.0 103278
26 october, tue
tue2600:00+4se36530 0.0 1031115
03:00+3se38562 0.0 1031149
06:00+2se39675 0.0 1030169
09:00+4sse511695 0.0 1030340
12:00+10sse810483 0.0 1028943
15:00+13sse79390 0.0 10251195
18:00+11sse510510 0.0 1025264
21:00+8sse613640 0.0 1025369
27 october, wed
wed2700:00+6sse613770 0.0 1024344
03:00+5se512860 0.0 1024302
06:00+4se39920 0.0 1024207
09:00+5se27850 0.0 1024202
12:00+10ssw3360100 0.0 1024809
15:00+12nnw3352100 0.0 1024832
18:00+10n225899 0.0 102426
21:00+8nnw226231 0.0 102510
28 october, thu
thu2800:00+6nnw22632 0.0 102612
03:00+5n22775 0.0 102711
06:00+4nnw1188100 0.0 102811
09:00+6n118578 0.0 102946
12:00+11nw22627 0.0 1028541
15:00+13nw225131 0.0 1027953
18:00+11nnw116074 0.0 102710
21:00+9wsw1167100 0.0 102710